This demonstration page uses our WeatherBlox Daily Observations layout. Learn more.

Left ArrowRight Arrow

Hourly Observations for November 29, 2019

Temp ( °F °C ) Dew Point ( °F °C ) Humidity (%) Winds ( mph kmh ) Pressure ( in mb ) Visibility ( mi km ) Precip ( " mm )
12:11 am 00:11 Cloudy with Mist and Fog 30 -1 30 -1 100 100 SSE 9 15 30.28 1026 3 4 0.00 0.00
12:53 am 00:53 Cloudy with Mist and Fog 31 -0.6 30 -1.1 96 96 SSE 9 15 30.24 1024 2 3 0.00 0.00
1:51 am 01:51 Cloudy with Mist and Fog 30 -1 30 -1 100 100 SSE 7 11 30.26 1025 3 5 0.00 0.00
1:53 am 01:53 Cloudy with Mist and Fog 31 -0.6 30 -1.1 96 96 SE 8 13 30.23 1024 4 6 0.00 0.00
2:35 am 02:35 Cloudy with Mist and Fog 30 -1 30 -1 100 100 SE 9 15 30.27 1025 2 3 0.00 0.00
2:48 am 02:48 Cloudy with Mist and Fog 30 -1 30 -1 100 100 SE 10 17 30.26 1025 2 2 0.00 0.00
2:53 am 02:53 Cloudy with Mist and Fog 31 -0.6 30 -1.1 96 96 SE 12 19 30.22 1024 2 2 0.00 0.00
3:15 am 03:15 Cloudy with Mist and Fog 31 -0.6 31 -0.6 100 100 SSE 9 15 30.27 1025 2 3 0.00 0.00
3:43 am 03:43 Cloudy with Mist and Fog 30 -1 30 -1 100 100 SE 12 19 30.26 1025 5 8 0.00 0.00
3:53 am 03:53 Cloudy 31 -0.6 31 -0.6 100 100 SE 9 15 30.22 1023 7 11 0.00 0.00
4:50 am 04:50 Cloudy with Mist and Fog 30 -1 30 -1 100 100 SE 9 15 30.22 1023 3 4 0.00 0.00
4:53 am 04:53 Cloudy with Mist and Fog 31 -0.6 31 -0.6 100 100 SE 9 15 30.19 1022 3 4 0.00 0.00
5:21 am 05:21 Cloudy with Mist and Fog 31 -0.6 31 -0.6 100 100 SE 12 19 30.21 1023 1 2 0.00 0.00
5:31 am 05:31 Mostly Cloudy with Mist and Fog 31 -0.6 31 -0.6 100 100 SE 10 17 30.22 1023 1 1 0.00 0.00
5:53 am 05:53 Mostly Cloudy with Fog 32 0 31 -0.6 96 96 SE 8 13 30.20 1023 0 0 0.00 0.00
6:53 am 06:53 Mostly Cloudy with Fog 32 0 31 -0.6 96 96 ESE 10 17 30.16 1022 0 0 0.00 0.00
7:51 am 07:51 Mostly Cloudy with Mist and Fog 32 0 30 -1 93 93 SE 8 13 30.20 1023 1 2 0.00 0.00
7:53 am 07:53 Cloudy with Mist and Fog 32 0 31 -0.6 96 96 SE 7 11 30.18 1022 1 2 0.00 0.00
8:35 am 08:35 Cloudy with Fog 32 0 31 -0.6 96 96 ESE 9 15 30.20 1023 1 1 0.00 0.00
8:53 am 08:53 Mostly Cloudy with Fog 32 0 31 -0.6 96 96 SE 9 15 30.18 1022 0 0 0.00 0.00
9:53 am 09:53 Mostly Cloudy with Fog 32 0 32 0 100 100 SE 10 17 30.13 1020 0 0 0.00 0.00
10:53 am 10:53 Mostly Cloudy with Light Wintry Mix 32 0 32 0 100 100 SE 15 24 30.10 1019 0 0 0.00 0.00
11:53 am 11:53 Cloudy with Light Wintry Mix 32 0 32 0 100 100 ESE 13 20 30.07 1018 1 2 0.04 1.02
12:01 pm 12:01 Cloudy with Light Wintry Mix 32 0 32 0 100 100 E 7 11 30.08 1018 1 1 0.00 0.00
12:48 pm 12:48 Cloudy with Mist and Fog 32 0 32 0 100 100 ESE 15 24 30.06 1018 1 2 0.00 0.00
12:53 pm 12:53 Cloudy with Light Wintry Mix 33 0.6 32 0 96 96 ESE 16 26 30.02 1017 1 2 0.02 0.51
1:12 pm 13:12 Cloudy with Mist and Fog 33 0.6 32 0 96 96 ESE 17 28 30.02 1017 3 5 0.00 0.00
1:19 pm 13:19 Cloudy with Light Rain 33 0.6 32 0 96 96 SE 14 22 30.02 1017 3 4 0.00 0.00
1:32 pm 13:32 Cloudy with Light Rain 33 0.6 32 0 96 96 SE 15 24 30.01 1016 2 3 0.01 0.25
1:49 pm 13:49 Cloudy with Fog 34 1 32 0 93 93 SE 12 19 30.01 1016 1 1 0.00 0.00
1:53 pm 13:53 Cloudy with Fog 33 0.6 32 0 96 96 SE 10 17 29.98 1015 0 0 0.01 0.25
2:11 pm 14:11 Cloudy with Mist and Fog 33 0.6 33 0.6 100 100 ESE 8 13 30.01 1016 2 2 0.00 0.00
2:28 pm 14:28 Cloudy with Fog 33 0.6 32 0 96 96 ESE 9 15 30.01 1016 1 1 0.00 0.00
2:53 pm 14:53 Mostly Cloudy with Light Rain 33 0.6 32 0 96 96 ESE 10 17 29.95 1014 0 0 0.01 0.25
3:53 pm 15:53 Mostly Cloudy with Fog 33 0.6 33 0.6 100 100 ESE 12 19 29.93 1014 N/A 0.00 0.00
4:21 pm 16:21 Mostly Cloudy with Nearby Thunderstorms 33 0.6 33 0.6 100 100 ESE 15 24 29.96 1015 0 0 0.00 0.00
4:53 pm 16:53 Mostly Cloudy with Fog 33 0.6 33 0.6 100 100 ESE 14 22 29.90 1013 0 0 0.00 0.00
5:23 pm 17:23 Cloudy with Mist and Fog 33 0.6 33 0.6 100 100 ESE 14 22 29.91 1013 1 2 0.00 0.00
5:53 pm 17:53 Cloudy with Mist and Fog 34 1.1 33 0.6 97 97 E 14 22 29.87 1012 1 2 0.00 0.00
6:53 pm 18:53 Cloudy with Mist and Fog 34 1.1 33 0.6 97 97 ESE 14 22 29.84 1011 1 2 0.00 0.00
7:53 pm 19:53 Cloudy with Mist and Fog 34 1.1 33 0.6 97 97 ESE 14 22 29.82 1010 1 2 0.00 0.00
8:53 pm 20:53 Cloudy with Mist and Fog 34 1.1 33 0.6 97 97 ESE 15 24 29.77 1008 1 2 0.00 0.00
9:53 pm 21:53 Cloudy with Mist and Fog 34 1.1 33 0.6 97 97 SE 9 15 29.76 1008 2 2 0.00 0.00
10:53 pm 22:53 Cloudy with Mist and Fog 34 1.1 34 1.1 100 100 ESE 13 20 29.68 1005 1 2 0.00 0.00
11:25 pm 23:25 Mostly Cloudy with Mist and Fog 34 1 34 1 100 100 SE 15 24 29.71 1006 1 1 0.00 0.00
11:53 pm 23:53 Mostly Cloudy with Mist and Fog 35 1.7 34 1.1 96 96 ESE 15 24 29.64 1004 1 1 0.00 0.00

Powered by AerisWeather